KC5MUJ-1 Weather Reports


Display with metric or nautical units.
time (UTC)temp
F
wind
direction
speed
MPH
gust
MPH
rain 1hr
in
rain 24hr
in
rain mn
in
humidity
%
barometer
mb
20190321194253 78 0 0.0 1.0 0.00 0.00 0.00 26 1020.8
20190321193253 79 0 0.0 2.0 0.00 0.00 0.00 26 1020.8
20190321192253 79 0 0.0 3.0 0.00 0.00 0.00 24 1021.2
20190321191253 78 0 0.0 2.0 0.00 0.00 0.00 26 1021.5
20190321190253 78 0 0.0 0.0 0.00 0.00 0.00 26 1021.5
20190321185252 77 0 0.0 1.0 0.00 0.00 0.00 26 1021.8
20190321184252 77 0 0.0 1.0 0.00 0.00 0.00 25 1021.9
20190321183253 76 0 0.0 1.0 0.00 0.00 0.00 25 1021.9
20190321182252 76 79 1.0 4.0 0.00 0.00 0.00 27 1022.3
20190321181254 76 71 3.0 7.0 0.00 0.00 0.00 27 1022.4
20190321180252 76 0 0.0 0.0 0.00 0.00 0.00 26 1022.4
20190321175252 76 0 0.0 6.0 0.00 0.00 0.00 27 1022.6
20190321174252 76 0 0.0 3.0 0.00 0.00 0.00 29 1022.9
20190321173437 75 0 0.0 1.0 0.00 0.00 0.00 29 1022.9
20190321173253 75 0 0.0 1.0 0.00 0.00 0.00 29 1022.9
20190321172400 74 0 0.0 1.0 0.00 0.00 0.00 30 1023.1
20190321172252 74 0 0.0 1.0 0.00 0.00 0.00 30 1023.1
20190321171252 73 0 0.0 2.0 0.00 0.00 0.00 33 1023.4
20190321170253 73 0 0.0 3.0 0.00 0.00 0.00 33 1023.4
20190321165252 73 0 0.0 0.0 0.00 0.00 0.00 34 1023.5
20190321164253 72 0 0.0 0.0 0.00 0.00 0.00 38 1023.7
20190321163253 71 0 0.0 0.0 0.00 0.00 0.00 39 1023.7
20190321162252 70 0 0.0 0.0 0.00 0.00 0.00 40 1023.7
20190321161252 70 0 0.0 0.0 0.00 0.00 0.00 44 1023.8
20190321160252 69 0 0.0 0.0 0.00 0.00 0.00 45 1023.8
20190321155253 68 0 0.0 0.0 0.00 0.00 0.00 47 1023.9
20190321154252 68 0 0.0 0.0 0.00 0.00 0.00 49 1024.0
20190321153252 67 0 0.0 0.0 0.00 0.00 0.00 50 1024.0
20190321152252 67 0 0.0 0.0 0.00 0.00 0.00 53 1023.7
20190321151251 66 0 0.0 0.0 0.00 0.00 0.00 54 1023.9
20190321150255 64 0 0.0 0.0 0.00 0.00 0.00 55 1023.9
20190321145251 62 0 0.0 0.0 0.00 0.00 0.00 56 1024.0
20190321144251 61 0 0.0 0.0 0.00 0.00 0.00 56 1023.8
20190321143254 60 0 0.0 0.0 0.00 0.00 0.00 59 1023.8
20190321141252 58 0 0.0 0.0 0.00 0.00 0.00 68 1023.7
20190321140252 56 0 0.0 0.0 0.00 0.00 0.00 70 1023.7
20190321135252 55 0 0.0 0.0 0.00 0.00 0.00 74 1023.5
20190321134251 53 0 0.0 0.0 0.00 0.00 0.00 76 1023.4
20190321133257 52 0 0.0 0.0 0.00 0.00 0.00 79 1023.4
20190321132251 52 0 0.0 0.0 0.00 0.00 0.00 80 1023.3
20190321131251 51 0 0.0 0.0 0.00 0.00 0.00 81 1023.4
20190321130251 50 0 0.0 0.0 0.00 0.00 0.00 82 1023.4
20190321125251 50 0 0.0 0.0 0.00 0.00 0.00 83 1023.1
20190321124251 50 0 0.0 0.0 0.00 0.00 0.00 83 1022.9
20190321123251 50 0 0.0 0.0 0.00 0.00 0.00 83 1022.9
20190321122251 49 0 0.0 0.0 0.00 0.00 0.00 82 1022.9
20190321121251 49 0 0.0 0.0 0.00 0.00 0.00 80 1023.0
20190321120251 50 0 0.0 0.0 0.00 0.00 0.00 79 1023.0
20190321114251 50 0 0.0 0.0 0.00 0.00 0.00 77 1022.8
20190321112250 51 0 0.0 0.0 0.00 0.00 0.00 75 1022.6
20190321111251 52 0 0.0 0.0 0.00 0.00 0.00 75 1022.3
20190321110251 52 0 0.0 0.0 0.00 0.00 0.00 75 1022.3
20190321105251 52 0 0.0 0.0 0.00 0.00 0.00 75 1022.3
20190321104251 52 0 0.0 0.0 0.00 0.00 0.00 74 1022.2
20190321103251 53 0 0.0 0.0 0.00 0.00 0.00 74 1022.2
20190321102251 53 0 0.0 0.0 0.00 0.00 0.00 73 1022.1
20190321101251 54 0 0.0 0.0 0.00 0.00 0.00 73 1022.1
20190321094250 54 0 0.0 0.0 0.00 0.00 0.00 74 1022.1
20190321093251 54 0 0.0 0.0 0.00 0.00 0.00 75 1022.1
20190321092251 54 0 0.0 0.0 0.00 0.00 0.00 75 1022.3
20190321091252 54 0 0.0 0.0 0.00 0.00 0.00 75 1022.6
20190321090250 54 0 0.0 0.0 0.00 0.00 0.00 74 1022.6
20190321085251 55 0 0.0 0.0 0.00 0.00 0.00 73 1022.6
20190321084251 55 0 0.0 0.0 0.00 0.00 0.00 72 1022.6
20190321083253 56 0 0.0 0.0 0.00 0.00 0.00 71 1022.6
20190321082251 56 0 0.0 0.0 0.00 0.00 0.00 70 1022.6
20190321081250 56 0 0.0 0.0 0.00 0.00 0.00 70 1022.7
20190321080251 56 0 0.0 0.0 0.00 0.00 0.00 70 1022.7
20190321075250 57 0 0.0 0.0 0.00 0.00 0.00 69 1023.0
20190321074250 57 0 0.0 0.0 0.00 0.00 0.00 70 1022.8
20190321073250 57 0 0.0 0.0 0.00 0.00 0.00 68 1022.8
20190321072250 57 0 0.0 0.0 0.00 0.00 0.00 67 1022.7
20190321071251 58 0 0.0 0.0 0.00 0.00 0.00 67 1022.8
20190321065250 58 0 0.0 0.0 0.00 0.00 0.00 66 1022.8
20190321064250 58 0 0.0 0.0 0.00 0.00 0.00 66 1022.8
20190321063250 59 0 0.0 0.0 0.00 0.00 0.00 66 1022.8
20190321062250 59 0 0.0 0.0 0.00 0.00 0.00 66 1022.9
20190321061250 59 0 0.0 0.0 0.00 0.00 0.00 66 1022.9
20190321060250 59 0 0.0 0.0 0.00 0.00 0.00 66 1022.9
20190321055250 59 0 0.0 0.0 0.00 0.00 0.00 66 1022.8
20190321054250 59 0 0.0 0.0 0.00 0.00 0.00 67 1022.8
20190321053250 59 0 0.0 1.0 0.00 0.00 0.00 67 1022.8
20190321052250 59 0 0.0 0.0 0.00 0.00 0.00 67 1022.8
20190321051251 59 0 0.0 1.0 0.00 0.00 0.00 67 1022.8
20190321050250 59 0 0.0 1.0 0.00 0.00 0.00 67 1022.8
20190321045250 59 0 0.0 1.0 0.00 0.00 0.00 68 1022.8
20190321044250 59 0 0.0 1.0 0.00 0.00 0.00 68 1023.0
20190321043250 59 0 0.0 1.0 0.00 0.00 0.00 69 1023.0
20190321042250 59 0 0.0 0.0 0.00 0.00 0.00 70 1022.7
20190321041250 59 0 0.0 2.0 0.00 0.00 0.00 70 1022.6
20190321040250 59 0 0.0 0.0 0.00 0.00 0.00 69 1022.6
20190321035250 60 0 0.0 0.0 0.00 0.00 0.00 69 1022.5
20190321034250 60 0 0.0 1.0 0.00 0.00 0.00 70 1022.7
20190321033250 60 0 0.0 0.0 0.00 0.00 0.00 70 1022.7
20190321032332 61 0 0.0 0.0 0.00 0.00 0.00 68 1022.3
20190321032250 61 0 0.0 0.0 0.00 0.00 0.00 68 1022.3
20190321031251 61 0 0.0 0.0 0.00 0.00 0.00 68 1022.2
20190321030250 61 0 0.0 0.0 0.00 0.00 0.00 68 1022.2
20190321025250 62 0 0.0 0.0 0.00 0.00 0.00 67 1021.9
20190321024250 62 0 0.0 0.0 0.00 0.00 0.00 66 1021.7
20190321023250 63 0 0.0 0.0 0.00 0.00 0.00 65 1021.7
20190321022250 64 0 0.0 0.0 0.00 0.00 0.00 64 1021.7
20190321021250 64 0 0.0 0.0 0.00 0.00 0.00 63 1021.4
20190321020250 65 0 0.0 0.0 0.00 0.00 0.00 62 1021.4
20190321015251 65 0 0.0 0.0 0.00 0.00 0.00 62 1021.4
20190321014252 65 0 0.0 0.0 0.00 0.00 0.00 62 1021.3
20190321013251 65 0 0.0 3.0 0.00 0.00 0.00 62 1021.3
20190321012251 65 0 0.0 0.0 0.00 0.00 0.00 62 1021.2
20190321011251 65 0 0.0 0.0 0.00 0.00 0.00 61 1021.1
20190321010250 66 0 0.0 0.0 0.00 0.00 0.00 60 1021.1
20190321005250 66 0 0.0 0.0 0.00 0.00 0.00 60 1020.9
20190321004250 66 0 0.0 1.0 0.00 0.00 0.00 59 1020.6
20190321003250 67 0 0.0 9.0 0.00 0.00 0.00 59 1020.6
20190321002250 68 0 0.0 2.0 0.00 0.00 0.00 58 1020.5
20190321001250 68 0 0.0 1.0 0.00 0.00 0.00 57 1020.4
20190321000251 68 0 0.0 2.0 0.00 0.00 0.00 56 1020.4
20190320235250 69 0 0.0 5.0 0.00 0.00 0.00 55 1020.3
20190320234250 69 0 0.0 9.0 0.00 0.00 0.00 55 1020.0
20190320233249 70 0 0.0 5.0 0.00 0.00 0.00 55 1020.0
20190320232250 70 0 0.0 3.0 0.00 0.00 0.00 55 1019.9
20190320231253 70 0 0.0 1.0 0.00 0.00 0.00 55 1019.9
20190320230250 71 0 0.0 5.0 0.00 0.00 0.00 54 1019.9
20190320225249 71 0 0.0 2.0 0.00 0.00 0.00 54 1019.9
20190320223249 72 32 1.0 6.0 0.00 0.00 0.00 55 1019.9
20190320222250 71 0 0.0 7.0 0.00 0.00 0.00 55 1019.9
20190320220250 71 0 0.0 2.0 0.00 0.00 0.00 56 1019.9
20190320215249 71 0 0.0 1.0 0.00 0.00 0.00 56 1019.9
20190320214250 71 0 0.0 2.0 0.00 0.00 0.00 55 1020.2
20190320213251 71 0 0.0 3.0 0.00 0.00 0.00 55 1020.2
20190320212250 72 0 0.0 10.0 0.00 0.00 0.00 54 1019.9
20190320211253 74 0 0.0 9.0 0.00 0.00 0.00 51 1020.0
20190320210250 75 0 0.0 3.0 0.00 0.00 0.00 43 1020.0
20190320205250 76 0 0.0 1.0 0.00 0.00 0.00 43 1020.1
20190320203249 75 0 0.0 1.0 0.00 0.00 0.00 44 1020.3
20190320202249 74 0 0.0 1.0 0.00 0.00 0.00 46 1020.4
20190320201249 74 0 0.0 1.0 0.00 0.00 0.00 44 1020.4
20190320195251 77 0 0.0 1.0 0.00 0.00 0.00 41 1020.6